Location: Bacharowice
(49.9333°N, 19.5833°E)
Time: 07:23:34
(UTC+00:00)

Cosmos 2344 - Pass Details

Date: 29 September 2021
Orbit: 1235 x 3007 km, 63.3° (Epoch: 19 October)

Event Time Altitude Azimuth Distance (km) Brightness Sun altitude
Rises 20:44:43 0° 313° (NW) 4,381 7.3 -37.6°
Reaches altitude 10° 20:47:19 10° 317° (NW) 3,520 6.6 -37.9°
Maximum altitude 20:55:56 67° 40° (NE) 1,837 4.2 -38.6°
Enters shadow 20:56:20 67° 53° (NE) 1,859 4.2 -38.7°
